Location: Mountain Grove
(34.0887°N, 86.6172°W)
Time: 21:34:48
(UTC+00:00)

Cosmos 2333 Rocket - Pass Details

Date: 14 July 2020
Orbit: 837 x 864 km, 70.8° (Epoch: 08 August)

Event Time Altitude Azimuth Distance (km) Brightness Sun altitude
Rises 01:45:39 0° 212° (SSW) 3,387 5.3 -9.1°
Reaches altitude 10° 01:48:08 10° 217° (SW) 2,459 4.7 -9.6°
Maximum altitude 01:53:39 54° 294° (WNW) 1,023 3.1 -10.5°
Drops below altitude 10° 01:59:15 10° 11° (NNE) 2,490 5.0 -11.4°
Sets 02:01:47 0° 16° (NNE) 3,434 5.6 -11.9°
